Вернуться в каталог

MONITOR-3

АктивенЛюбительское радиоSSO
NORAD 57180·PAYLOAD·🇷🇺 Russia
Это название спутника еще не подтверждено официальными источниками.

Запущен Jun 27, 2023 с Vostochny Cosmodrome

Loading…

Ближайшие Пролёты (ближайшие 24 часа)

TLE

СвежийSource: Space-Track

Эпоха: Sep 14, 2026, 14:47 UTC

1 57180U 23091Q   26257.61617786  .00008404  00000-0  29698-3 0  9993
2 57180  97.4990 321.7761 0012233 138.7673 221.4493 15.29382849177959

Отслеживайте MONITOR-3 в реальном времени с AllMySat

Download on the App Store